QPF
0.00 0.01 0.01 0.01 0.01 0.01 0.02 0.03 0.04 0.04 0.03 0.03 0.04 0.05 0.04 0.03 0.02 0.02 0.02 0.01 0.01 0.01 0.02 0.02 0.01 0.00 0.00 0.00 0.01 0.02 0.03 0.04 0.05 0.06 0.06 0.04 0.03 0.03 0.03 0.04 0.04 0.04 0.03 0.02
0.00 0.00 0.01 0.01 0.02 0.02 0.02 0.02 0.03 0.02 0.02 0.02 0.02 0.03 0.03 0.03 0.02 0.02 0.02 0.02 0.02 0.01 0.02 0.02 0.02 0.01 0.01 0.00 0.00 0.01 0.02 0.03 0.04 0.06 0.08 0.08 0.07 0.06 0.05 0.04 0.04 0.05 0.05 0.04
0.01 0.00 0.02 0.03 0.03 0.04 0.03 0.03 0.03 0.03 0.03 0.02 0.02 0.02 0.03 0.03 0.03 0.03 0.02 0.02 0.03 0.02 0.02 0.02 0.02 0.02 0.01 0.01 0.00 0.01 0.02 0.03 0.04 0.04 0.06 0.07 0.07 0.08 0.07 0.06 0.05 0.04 0.04 0.05
0.02 0.01 0.02 0.03 0.02 0.03 0.04 0.03 0.03 0.04 0.04 0.03 0.02 0.02 0.02 0.02 0.02 0.03 0.02 0.02 0.02 0.02 0.02 0.02 0.02 0.02 0.01 0.01 0.01 0.01 0.01 0.02 0.02 0.04 0.04 0.05 0.06 0.05 0.05 0.06 0.06 0.05 0.04 0.04
0.03 0.02 0.01 0.02 0.01 0.03 0.04 0.04 0.03 0.03 0.02 0.02 0.02 0.02 0.02 0.01 0.01 0.02 0.02 0.02 0.02 0.02 0.02 0.02 0.02 0.02 0.01 0.01 0.01 0.01 0.01 0.01 0.01 0.02 0.03 0.03 0.03 0.04 0.04 0.04 0.04 0.04 0.04 0.04
0.03 0.02 0.01 0.01 0.01 0.01 0.04 0.04 0.02 0.02 0.02 0.02 0.02 0.02 0.02 0.01 0.01 0.01 0.01 0.02 0.02 0.02 0.02 0.02 0.02 0.02 0.01 0.01 0.01 0.01 0.01 0.00 0.00 0.01 0.02 0.02 0.02 0.03 0.03 0.03 0.03 0.03 0.03 0.03
0.02 0.02 0.01 0.01 0.00 0.01 0.03 0.03 0.01 0.01 0.02 0.02 0.02 0.02 0.02 0.01 0.02 0.01 0.01 0.01 0.01 0.02 0.02 0.02 0.02 0.02 0.01 0.01 0.01 0.01 0.01 0.00 0.00 0.00 0.00 0.01 0.01 0.02 0.02 0.02 0.02 0.02 0.02 0.02
0.01 0.01 0.01 0.00 0.00 0.01 0.02 0.01 0.01 0.01 0.01 0.01 0.01 0.01 0.01 0.02 0.02 0.02 0.01 0.01 0.01 0.01 0.01 0.02 0.02 0.02 0.02 0.01 0.01 0.01 0.01 0.01 0.00 0.00 0.00 0.00 0.01 0.01 0.01 0.02 0.02 0.02 0.02 0.02
0.00 0.01 0.00 0.00 0.01 0.01 0.01 0.01 0.00 0.01 0.01 0.01 0.01 0.01 0.01 0.01 0.01 0.02 0.02 0.01 0.01 0.01 0.01 0.02 0.01 0.01 0.02 0.02 0.01 0.01 0.01 0.01 0.01 0.00 0.00 0.00 0.00 0.00 0.01 0.01 0.01 0.01 0.01 0.01
0.01 0.00 0.00 0.00 0.01 0.01 0.01 0.01 0.01 0.01 0.01 0.01 0.01 0.01 0.01 0.01 0.01 0.01 0.02 0.01 0.01 0.01 0.01 0.02 0.02 0.01 0.01 0.01 0.01 0.01 0.01 0.01 0.01 0.01 0.01 0.01 0.01 0.01 0.00 0.00 0.00 0.00 0.01 0.01
0.00 0.00 0.00 0.00 0.01 0.01 0.01 0.01 0.01 0.01 0.01 0.01 0.00 0.01 0.01 0.01 0.01 0.01 0.01 0.01 0.01 0.01 0.01 0.02 0.02 0.01 0.01 0.01 0.01 0.01 0.01 0.01 0.01 0.01 0.01 0.01 0.01 0.01 0.01 0.00 0.00 0.00 0.00 0.00
0.00 0.00 0.00 0.00 0.01 0.01 0.01 0.01 0.01 0.02 0.01 0.00 0.01 0.01 0.00 0.00 0.01 0.01 0.01 0.01 0.01 0.01 0.01 0.02 0.02 0.02 0.01 0.01 0.01 0.01 0.01 0.01 0.01 0.01 0.01 0.01 0.01 0.01 0.01 0.01 0.01 0.01 0.01 0.00
0.00 0.00 0.00 0.00 0.00 0.01 0.01 0.01 0.02 0.02 0.01 0.00 0.01 0.00 0.00 0.00 0.00 0.01 0.01 0.01 0.01 0.02 0.02 0.02 0.02 0.03 0.02 0.01 0.01 0.01 0.02 0.02 0.01 0.01 0.01 0.02 0.02 0.01 0.01 0.01 0.02 0.01 0.01 0.01
0.00 0.00 0.00 0.00 0.00 0.00 0.01 0.01 0.01 0.01 0.00 0.00 0.00 0.00 0.00 0.00 0.00 0.01 0.01 0.02 0.01 0.01 0.02 0.02 0.03 0.03 0.03 0.02 0.01 0.01 0.01 0.02 0.02 0.02 0.02 0.02 0.02 0.01 0.01 0.01 0.01 0.01 0.01 0.02
0.00 0.00 0.01 0.00 0.00 0.00 0.00 0.00 0.01 0.01 0.01 0.00 0.00 0.00 0.00 0.00 0.00 0.01 0.01 0.01 0.02 0.02 0.02 0.03 0.03 0.03 0.03 0.02 0.01 0.01 0.01 0.02 0.03 0.03 0.03 0.02 0.02 0.01 0.01 0.01 0.01 0.01 0.01 0.02
0.00 0.00 0.00 0.00 0.00 0.00 0.00 0.00 0.01 0.01 0.01 0.01 0.00 0.00 0.00 0.00 0.00 0.01 0.01 0.01 0.02 0.02 0.03 0.03 0.03 0.03 0.04 0.02 0.01 0.01 0.01 0.03 0.04 0.04 0.04 0.03 0.03 0.01 0.01 0.01 0.01 0.01 0.01 0.01
0.01 0.00 0.00 0.00 0.00 0.01 0.01 0.00 0.01 0.01 0.01 0.01 0.01 0.00 0.00 0.00 0.00 0.00 0.01 0.01 0.02 0.03 0.03 0.03 0.03 0.03 0.03 0.03 0.01 0.01 0.01 0.02 0.04 0.04 0.04 0.04 0.03 0.02 0.01 0.01 0.01 0.01 0.01 0.01
0.01 0.01 0.01 0.01 0.01 0.01 0.00 0.00 0.01 0.01 0.01 0.01 0.01 0.01 0.01 0.01 0.01 0.01 0.01 0.01 0.02 0.02 0.03 0.04 0.04 0.03 0.03 0.03 0.02 0.01 0.01 0.02 0.03 0.04 0.05 0.05 0.04 0.02 0.01 0.01 0.01 0.01 0.01 0.01
0.01 0.01 0.01 0.01 0.01 0.01 0.01 0.01 0.01 0.01 0.01 0.01 0.01 0.01 0.01 0.01 0.01 0.01 0.01 0.01 0.02 0.03 0.03 0.04 0.05 0.04 0.04 0.03 0.02 0.02 0.02 0.02 0.03 0.03 0.04 0.05 0.04 0.03 0.02 0.01 0.01 0.01 0.01 0.01
0.01 0.01 0.01 0.01 0.01 0.01 0.01 0.01 0.01 0.01 0.01 0.01 0.01 0.01 0.01 0.01 0.01 0.01 0.01 0.01 0.02 0.03 0.03 0.04 0.05 0.05 0.05 0.03 0.03 0.03 0.03 0.03 0.03 0.03 0.04 0.04 0.04 0.04 0.03 0.03 0.03 0.02 0.02 0.02
0.01 0.01 0.01 0.01 0.01 0.01 0.01 0.01 0.01 0.01 0.01 0.01 0.01 0.01 0.01 0.01 0.01 0.01 0.01 0.01 0.02 0.02 0.03 0.04 0.05 0.05 0.05 0.04 0.03 0.03 0.03 0.03 0.03 0.03 0.03 0.04 0.04 0.04 0.04 0.04 0.03 0.03 0.02 0.02
0.01 0.01 0.01 0.01 0.01 0.01 0.01 0.01 0.01 0.01 0.00 0.01 0.01 0.01 0.02 0.02 0.02 0.02 0.02 0.02 0.02 0.03 0.04 0.04 0.05 0.05 0.06 0.06 0.04 0.04 0.04 0.03 0.03 0.02 0.02 0.02 0.03 0.03 0.03 0.02 0.02 0.01 0.02 0.02
0.01 0.01 0.01 0.01 0.01 0.01 0.01 0.01 0.01 0.01 0.01 0.01 0.01 0.01 0.02 0.02 0.02 0.02 0.02 0.02 0.02 0.04 0.05 0.05 0.05 0.05 0.05 0.05 0.05 0.04 0.03 0.03 0.02 0.02 0.02 0.02 0.03 0.03 0.03 0.02 0.01 0.01 0.02 0.02
0.02 0.01 0.01 0.02 0.02 0.01 0.01 0.01 0.01 0.01 0.01 0.01 0.01 0.01 0.01 0.02 0.02 0.02 0.02 0.02 0.03 0.05 0.05 0.05 0.05 0.04 0.04 0.04 0.04 0.04 0.03 0.03 0.03 0.02 0.02 0.03 0.03 0.03 0.03 0.02 0.02 0.02 0.02 0.02
0.02 0.02 0.02 0.02 0.02 0.02 0.02 0.01 0.01 0.01 0.01 0.01 0.01 0.01 0.01 0.01 0.02 0.02 0.03 0.03 0.04 0.05 0.05 0.04 0.04 0.04 0.04 0.04 0.03 0.03 0.03 0.03 0.03 0.03 0.03 0.03 0.03 0.03 0.03 0.02 0.02 0.02 0.02 0.02
0.02 0.02 0.02 0.02 0.02 0.02 0.02 0.02 0.02 0.02 0.02 0.02 0.01 0.01 0.01 0.02 0.02 0.03 0.04 0.04 0.04 0.04 0.04 0.04 0.04 0.04 0.04 0.04 0.03 0.03 0.02 0.03 0.03 0.03 0.03 0.03 0.02 0.02 0.03 0.03 0.02 0.02 0.02 0.02
0.02 0.02 0.02 0.02 0.02 0.02 0.02 0.02 0.02 0.02 0.02 0.02 0.02 0.02 0.02 0.02 0.03 0.03 0.04 0.04 0.04 0.04 0.04 0.05 0.04 0.04 0.04 0.04 0.03 0.03 0.03 0.03 0.03 0.03 0.03 0.03 0.02 0.02 0.03 0.03 0.03 0.03 0.02 0.02
MSLP
1017.47 1016.80 1016.23 1015.75 1015.35 1014.98 1014.61 1014.19 1013.68 1013.07 1012.36 1011.57 1010.74 1009.90 1009.08 1008.30 1007.57 1006.86 1006.16 1005.43 1004.64 1003.79 1002.88 1001.93 1000.99 1000.12 999.36 998.78 998.41 998.28 998.39 998.72 999.24 999.91 1000.70 1001.57 1002.48 1003.41 1004.34 1005.26 1006.15 1007.01 1007.82 1008.58
1017.98 1017.43 1016.92 1016.46 1016.02 1015.60 1015.16 1014.66 1014.10 1013.46 1012.75 1011.97 1011.16 1010.35 1009.54 1008.78 1008.04 1007.32 1006.61 1005.88 1005.11 1004.29 1003.42 1002.51 1001.60 1000.73 999.94 999.29 998.81 998.53 998.46 998.61 998.95 999.47 1000.14 1000.92 1001.78 1002.70 1003.64 1004.58 1005.49 1006.37 1007.20 1007.96
1018.44 1017.97 1017.50 1017.04 1016.58 1016.10 1015.60 1015.06 1014.45 1013.78 1013.05 1012.27 1011.45 1010.63 1009.82 1009.03 1008.27 1007.53 1006.81 1006.08 1005.33 1004.54 1003.71 1002.85 1001.98 1001.13 1000.33 999.62 999.05 998.64 998.43 998.41 998.60 998.98 999.55 1000.26 1001.08 1001.99 1002.94 1003.91 1004.86 1005.76 1006.61 1007.38
1018.77 1018.33 1017.87 1017.38 1016.89 1016.37 1015.83 1015.25 1014.62 1013.93 1013.19 1012.40 1011.58 1010.75 1009.91 1009.10 1008.31 1007.55 1006.81 1006.07 1005.33 1004.57 1003.78 1002.95 1002.11 1001.27 1000.45 999.70 999.05 998.54 998.21 998.07 998.15 998.43 998.92 999.59 1000.40 1001.31 1002.29 1003.28 1004.26 1005.20 1006.07 1006.87
1018.92 1018.45 1017.94 1017.42 1016.88 1016.33 1015.76 1015.17 1014.53 1013.85 1013.12 1012.35 1011.54 1010.70 1009.86 1009.03 1008.22 1007.43 1006.67 1005.92 1005.18 1004.42 1003.64 1002.83 1002.00 1001.15 1000.31 999.52 998.81 998.23 997.81 997.59 997.59 997.82 998.27 998.93 999.74 1000.67 1001.68 1002.71 1003.73 1004.70 1005.60 1006.42
1018.83 1018.28 1017.71 1017.13 1016.55 1015.97 1015.39 1014.80 1014.19 1013.54 1012.84 1012.10 1011.32 1010.51 1009.68 1008.85 1008.03 1007.23 1006.46 1005.69 1004.94 1004.17 1003.38 1002.56 1001.71 1000.83 999.96 999.13 998.37 997.74 997.27 997.01 996.98 997.19 997.64 998.31 999.15 1000.11 1001.16 1002.22 1003.27 1004.27 1005.20 1006.05
1018.47 1017.83 1017.18 1016.55 1015.93 1015.34 1014.77 1014.20 1013.62 1013.01 1012.37 1011.69 1010.96 1010.19 1009.40 1008.60 1007.80 1007.01 1006.23 1005.45 1004.67 1003.88 1003.06 1002.21 1001.32 1000.40 999.49 998.62 997.83 997.17 996.68 996.41 996.38 996.61 997.09 997.78 998.66 999.66 1000.73 1001.83 1002.91 1003.93 1004.88 1005.75
1017.84 1017.13 1016.42 1015.75 1015.11 1014.52 1013.97 1013.43 1012.90 1012.35 1011.78 1011.16 1010.50 1009.81 1009.08 1008.33 1007.56 1006.79 1006.02 1005.24 1004.44 1003.62 1002.75 1001.85 1000.91 999.94 998.99 998.08 997.27 996.60 996.12 995.87 995.88 996.14 996.66 997.40 998.31 999.34 1000.44 1001.55 1002.64 1003.67 1004.64 1005.54
1016.97 1016.22 1015.50 1014.82 1014.20 1013.63 1013.11 1012.62 1012.14 1011.65 1011.14 1010.60 1010.02 1009.39 1008.74 1008.05 1007.35 1006.62 1005.87 1005.09 1004.28 1003.41 1002.50 1001.54 1000.54 999.52 998.53 997.59 996.77 996.12 995.67 995.46 995.52 995.84 996.41 997.19 998.14 999.19 1000.29 1001.41 1002.49 1003.53 1004.50 1005.42
1015.92 1015.19 1014.50 1013.87 1013.29 1012.77 1012.30 1011.86 1011.43 1010.99 1010.54 1010.07 1009.56 1009.01 1008.43 1007.82 1007.18 1006.50 1005.78 1005.01 1004.18 1003.28 1002.32 1001.30 1000.24 999.17 998.14 997.19 996.38 995.75 995.36 995.22 995.34 995.73 996.36 997.18 998.15 999.21 1000.31 1001.41 1002.48 1003.51 1004.48 1005.42
1014.75 1014.12 1013.52 1012.97 1012.48 1012.03 1011.61 1011.22 1010.84 1010.45 1010.05 1009.63 1009.18 1008.70 1008.19 1007.65 1007.07 1006.44 1005.75 1004.98 1004.13 1003.19 1002.18 1001.10 999.99 998.88 997.82 996.87 996.09 995.51 995.18 995.12 995.33 995.80 996.49 997.35 998.34 999.41 1000.50 1001.58 1002.63 1003.64 1004.62 1005.57
1013.57 1013.07 1012.61 1012.19 1011.80 1011.44 1011.10 1010.76 1010.42 1010.07 1009.70 1009.32 1008.92 1008.49 1008.05 1007.56 1007.03 1006.43 1005.76 1004.98 1004.11 1003.13 1002.05 1000.91 999.75 998.60 997.53 996.60 995.86 995.35 995.11 995.15 995.46 996.01 996.77 997.69 998.71 999.79 1000.87 1001.94 1002.97 1003.97 1004.94 1005.91
1012.43 1012.11 1011.82 1011.54 1011.29 1011.03 1010.76 1010.47 1010.17 1009.84 1009.50 1009.15 1008.78 1008.40 1008.00 1007.55 1007.05 1006.47 1005.79 1005.00 1004.08 1003.04 1001.90 1000.70 999.48 998.31 997.23 996.33 995.65 995.23 995.10 995.25 995.67 996.33 997.18 998.17 999.23 1000.33 1001.42 1002.47 1003.50 1004.49 1005.47 1006.46
1011.42 1011.28 1011.16 1011.05 1010.92 1010.76 1010.57 1010.33 1010.06 1009.76 1009.44 1009.11 1008.77 1008.42 1008.04 1007.62 1007.13 1006.55 1005.84 1005.01 1004.02 1002.91 1001.70 1000.44 999.17 997.97 996.91 996.05 995.44 995.13 995.12 995.40 995.95 996.73 997.69 998.76 999.88 1001.01 1002.12 1003.19 1004.22 1005.22 1006.21 1007.22
1010.60 1010.63 1010.67 1010.69 1010.68 1010.61 1010.48 1010.29 1010.06 1009.78 1009.48 1009.17 1008.85 1008.52 1008.16 1007.75 1007.25 1006.65 1005.90 1005.00 1003.95 1002.76 1001.47 1000.14 998.83 997.62 996.58 995.77 995.26 995.06 995.18 995.61 996.30 997.21 998.28 999.45 1000.64 1001.83 1002.98 1004.08 1005.12 1006.14 1007.14 1008.16
1010.00 1010.17 1010.34 1010.47 1010.55 1010.55 1010.47 1010.33 1010.12 1009.87 1009.59 1009.31 1009.01 1008.70 1008.35 1007.93 1007.42 1006.77 1005.97 1005.00 1003.87 1002.60 1001.24 999.85 998.51 997.30 996.29 995.56 995.14 995.06 995.33 995.90 996.74 997.79 998.98 1000.24 1001.52 1002.77 1003.96 1005.10 1006.18 1007.21 1008.24 1009.27
1009.64 1009.90 1010.16 1010.37 1010.50 1010.55 1010.51 1010.39 1010.21 1009.99 1009.74 1009.48 1009.21 1008.91 1008.56 1008.14 1007.60 1006.92 1006.06 1005.02 1003.82 1002.48 1001.06 999.64 998.29 997.10 996.14 995.49 995.18 995.23 995.62 996.34 997.31 998.48 999.78 1001.14 1002.49 1003.80 1005.05 1006.22 1007.33 1008.39 1009.43 1010.48
1009.51 1009.83 1010.12 1010.37 1010.53 1010.59 1010.57 1010.47 1010.31 1010.11 1009.89 1009.65 1009.40 1009.12 1008.79 1008.36 1007.80 1007.08 1006.17 1005.08 1003.83 1002.45 1001.00 999.57 998.24 997.09 996.20 995.64 995.44 995.61 996.13 996.96 998.05 999.32 1000.70 1002.13 1003.54 1004.90 1006.18 1007.39 1008.53 1009.61 1010.67 1011.72
1009.58 1009.91 1010.21 1010.44 1010.59 1010.65 1010.62 1010.53 1010.38 1010.19 1010.00 1009.79 1009.57 1009.31 1008.98 1008.55 1007.98 1007.24 1006.31 1005.20 1003.93 1002.54 1001.11 999.71 998.43 997.35 996.55 996.09 996.00 996.28 996.90 997.82 998.98 1000.31 1001.74 1003.20 1004.64 1006.02 1007.32 1008.54 1009.70 1010.80 1011.87 1012.93
1009.79 1010.09 1010.36 1010.55 1010.67 1010.70 1010.65 1010.54 1010.38 1010.22 1010.04 1009.86 1009.66 1009.42 1009.11 1008.69 1008.12 1007.39 1006.47 1005.37 1004.11 1002.76 1001.39 1000.06 998.87 997.89 997.20 996.85 996.86 997.22 997.91 998.89 1000.08 1001.43 1002.86 1004.31 1005.74 1007.10 1008.40 1009.62 1010.78 1011.89 1012.97 1014.03
1010.03 1010.29 1010.50 1010.64 1010.70 1010.68 1010.59 1010.46 1010.30 1010.14 1009.97 1009.81 1009.64 1009.42 1009.14 1008.74 1008.20 1007.50 1006.61 1005.56 1004.38 1003.11 1001.83 1000.62 999.55 998.70 998.12 997.88 997.98 998.41 999.14 1000.13 1001.31 1002.62 1004.01 1005.41 1006.79 1008.11 1009.38 1010.58 1011.73 1012.84 1013.93 1015.01
1010.22 1010.41 1010.55 1010.62 1010.61 1010.53 1010.40 1010.24 1010.08 1009.91 1009.76 1009.62 1009.47 1009.29 1009.04 1008.68 1008.19 1007.54 1006.73 1005.77 1004.69 1003.55 1002.41 1001.34 1000.42 999.71 999.26 999.13 999.30 999.77 1000.51 1001.47 1002.60 1003.85 1005.15 1006.47 1007.77 1009.02 1010.23 1011.40 1012.53 1013.64 1014.74 1015.84
1010.24 1010.36 1010.42 1010.41 1010.33 1010.20 1010.03 1009.84 1009.67 1009.51 1009.38 1009.26 1009.15 1009.01 1008.81 1008.51 1008.09 1007.52 1006.82 1005.98 1005.04 1004.06 1003.08 1002.18 1001.43 1000.87 1000.55 1000.50 1000.74 1001.23 1001.95 1002.86 1003.92 1005.06 1006.26 1007.47 1008.66 1009.83 1010.98 1012.10 1013.21 1014.31 1015.42 1016.54
1010.00 1010.04 1010.02 1009.94 1009.79 1009.61 1009.41 1009.21 1009.04 1008.90 1008.79 1008.72 1008.66 1008.57 1008.43 1008.22 1007.89 1007.44 1006.86 1006.17 1005.40 1004.59 1003.81 1003.09 1002.50 1002.10 1001.90 1001.94 1002.22 1002.72 1003.41 1004.25 1005.21 1006.24 1007.32 1008.41 1009.50 1010.58 1011.65 1012.72 1013.81 1014.91 1016.02 1017.15
1009.44 1009.40 1009.30 1009.15 1008.96 1008.74 1008.52 1008.33 1008.18 1008.07 1008.02 1008.00 1008.00 1008.00 1007.95 1007.84 1007.62 1007.31 1006.88 1006.36 1005.77 1005.16 1004.56 1004.03 1003.62 1003.36 1003.28 1003.40 1003.71 1004.20 1004.85 1005.62 1006.48 1007.40 1008.36 1009.33 1010.31 1011.30 1012.31 1013.34 1014.39 1015.48 1016.60 1017.74
1008.54 1008.42 1008.25 1008.05 1007.81 1007.58 1007.37 1007.20 1007.10 1007.05 1007.07 1007.14 1007.23 1007.33 1007.39 1007.40 1007.33 1007.16 1006.90 1006.56 1006.16 1005.74 1005.34 1004.99 1004.74 1004.62 1004.64 1004.83 1005.17 1005.66 1006.26 1006.96 1007.74 1008.56 1009.41 1010.28 1011.17 1012.09 1013.03 1014.01 1015.04 1016.11 1017.23 1018.36
1007.33 1007.14 1006.91 1006.66 1006.42 1006.19 1006.01 1005.89 1005.85 1005.89 1006.01 1006.18 1006.39 1006.61 1006.81 1006.96 1007.04 1007.04 1006.95 1006.79 1006.58 1006.35 1006.13 1005.96 1005.86 1005.86 1005.99 1006.24 1006.61 1007.09 1007.66 1008.30 1009.01 1009.74 1010.51 1011.30 1012.12 1012.98 1013.87 1014.81 1015.80 1016.84 1017.93 1019.05
Thickness
5341 5350 5351 5353 5359 5362 5362 5367 5370 5385 5395 5409 5415 5422 5430 5437 5448 5460 5470 5482 5493 5505 5517 5530 5545 5560 5574 5587 5599 5608 5615 5621 5627 5631 5633 5633 5632 5632 5632 5631 5630 5630 5628 5627
5340 5353 5353 5358 5365 5366 5368 5369 5371 5379 5390 5401 5407 5415 5421 5427 5437 5448 5458 5470 5482 5494 5506 5520 5534 5549 5563 5576 5589 5598 5607 5614 5620 5622 5625 5627 5627 5627 5627 5626 5626 5625 5625 5624
5333 5344 5348 5351 5361 5363 5364 5365 5366 5372 5382 5391 5398 5407 5413 5419 5428 5438 5449 5460 5471 5483 5496 5509 5523 5538 5551 5565 5577 5587 5597 5604 5610 5614 5617 5620 5622 5621 5622 5622 5622 5621 5621 5620
5326 5327 5325 5352 5361 5361 5359 5362 5363 5368 5375 5383 5392 5402 5409 5413 5420 5429 5440 5451 5462 5475 5488 5502 5515 5529 5542 5555 5566 5576 5585 5593 5600 5606 5609 5612 5614 5616 5617 5617 5617 5617 5616 5616
5315 5315 5328 5350 5358 5355 5352 5357 5361 5363 5371 5378 5387 5397 5405 5412 5417 5424 5432 5444 5455 5467 5480 5493 5506 5520 5532 5545 5555 5564 5573 5582 5590 5597 5600 5603 5606 5609 5611 5612 5612 5612 5612 5612
5308 5312 5327 5347 5357 5357 5352 5350 5359 5361 5365 5369 5376 5381 5396 5406 5411 5419 5428 5438 5450 5461 5473 5485 5498 5510 5523 5534 5544 5554 5563 5572 5580 5586 5591 5596 5600 5602 5604 5606 5606 5606 5606 5606
5302 5305 5325 5346 5350 5350 5338 5343 5356 5358 5359 5362 5366 5373 5386 5395 5403 5413 5422 5433 5443 5454 5465 5476 5489 5501 5513 5524 5534 5543 5552 5561 5569 5576 5582 5587 5591 5593 5596 5598 5598 5598 5598 5598
5295 5298 5320 5346 5343 5338 5339 5347 5350 5353 5355 5358 5363 5371 5378 5386 5395 5405 5415 5426 5436 5447 5458 5469 5480 5492 5503 5513 5524 5533 5542 5550 5558 5565 5571 5577 5581 5584 5586 5588 5589 5589 5589 5589
5305 5322 5334 5337 5338 5340 5340 5340 5343 5346 5350 5353 5358 5364 5372 5379 5388 5398 5407 5417 5428 5438 5449 5460 5470 5481 5491 5502 5513 5522 5530 5538 5546 5553 5560 5566 5571 5574 5576 5579 5581 5582 5582 5582
5306 5320 5326 5329 5331 5333 5335 5335 5339 5341 5344 5347 5351 5358 5364 5372 5381 5390 5399 5408 5418 5428 5440 5451 5460 5470 5481 5492 5502 5511 5519 5526 5534 5541 5548 5554 5560 5564 5568 5571 5573 5574 5575 5574
5305 5315 5318 5326 5328 5330 5331 5331 5333 5336 5339 5342 5346 5351 5357 5365 5372 5380 5390 5400 5409 5418 5430 5440 5450 5461 5471 5482 5491 5499 5507 5514 5521 5529 5536 5542 5547 5553 5558 5563 5568 5569 5569 5568
5312 5317 5314 5320 5324 5325 5325 5326 5328 5330 5334 5337 5340 5345 5351 5357 5364 5372 5381 5390 5399 5409 5420 5431 5441 5452 5462 5471 5481 5489 5496 5503 5510 5517 5523 5529 5535 5539 5544 5551 5555 5558 5560 5561
5317 5319 5315 5317 5318 5318 5318 5321 5323 5324 5327 5331 5335 5338 5343 5349 5356 5364 5372 5380 5390 5400 5410 5421 5432 5442 5452 5462 5471 5479 5485 5493 5500 5507 5512 5518 5524 5530 5533 5536 5541 5545 5548 5550
5311 5309 5309 5311 5311 5312 5312 5314 5316 5318 5321 5325 5328 5332 5337 5342 5349 5356 5364 5372 5381 5391 5401 5412 5422 5433 5443 5452 5461 5468 5475 5483 5490 5497 5503 5508 5514 5520 5524 5528 5529 5530 5533 5537
5305 5303 5303 5305 5305 5305 5305 5306 5307 5310 5314 5318 5321 5325 5329 5334 5340 5348 5355 5363 5372 5381 5392 5402 5413 5424 5434 5443 5451 5459 5466 5474 5481 5487 5493 5499 5504 5508 5511 5515 5518 5519 5521 5522
5301 5298 5296 5296 5296 5296 5297 5297 5299 5303 5306 5310 5313 5318 5322 5327 5332 5339 5346 5353 5362 5372 5382 5392 5403 5414 5424 5434 5442 5450 5457 5465 5472 5478 5484 5489 5494 5498 5501 5504 5507 5509 5511 5512
5292 5292 5290 5289 5288 5289 5289 5290 5292 5296 5299 5303 5306 5310 5315 5320 5326 5331 5338 5345 5354 5363 5374 5384 5394 5405 5416 5426 5434 5442 5448 5455 5463 5469 5475 5480 5484 5488 5491 5494 5496 5498 5499 5500
5287 5286 5284 5283 5282 5282 5283 5284 5285 5288 5291 5296 5300 5303 5308 5313 5318 5324 5330 5338 5346 5356 5366 5376 5387 5397 5407 5417 5426 5434 5440 5447 5453 5459 5466 5470 5473 5477 5480 5483 5485 5487 5487 5488
5281 5280 5279 5279 5278 5277 5277 5278 5279 5281 5285 5288 5292 5296 5300 5305 5311 5317 5323 5331 5340 5349 5360 5368 5380 5390 5400 5410 5419 5425 5432 5438 5444 5450 5456 5461 5463 5466 5469 5472 5474 5476 5477 5477
5274 5274 5273 5273 5273 5272 5272 5273 5274 5275 5278 5282 5286 5291 5295 5301 5305 5311 5318 5326 5335 5343 5352 5361 5372 5383 5392 5402 5411 5418 5425 5431 5437 5442 5447 5450 5453 5456 5459 5462 5464 5465 5466 5467
5267 5267 5268 5267 5267 5267 5267 5268 5269 5271 5273 5276 5280 5285 5290 5296 5301 5307 5314 5323 5332 5339 5347 5357 5367 5377 5386 5395 5404 5411 5417 5423 5429 5434 5438 5441 5444 5447 5449 5452 5453 5455 5457 5458
5261 5260 5260 5260 5261 5261 5262 5262 5264 5267 5269 5272 5276 5280 5285 5291 5297 5303 5311 5319 5328 5335 5343 5352 5361 5370 5380 5389 5396 5403 5409 5415 5421 5426 5430 5433 5436 5438 5440 5443 5444 5446 5447 5448
5254 5254 5254 5254 5255 5256 5257 5258 5260 5262 5265 5268 5272 5276 5281 5287 5294 5300 5309 5317 5324 5332 5339 5348 5357 5366 5375 5382 5389 5396 5401 5407 5412 5417 5421 5425 5428 5430 5432 5434 5436 5437 5438 5439
5248 5248 5248 5249 5249 5250 5253 5255 5257 5260 5263 5266 5270 5274 5279 5285 5292 5299 5306 5313 5322 5330 5337 5345 5353 5362 5370 5376 5383 5389 5394 5400 5404 5408 5412 5416 5419 5421 5424 5425 5427 5428 5430 5431
5242 5242 5242 5243 5244 5247 5249 5252 5254 5257 5260 5264 5268 5273 5278 5283 5290 5298 5304 5311 5319 5327 5334 5342 5350 5357 5363 5370 5376 5382 5388 5393 5397 5401 5404 5407 5410 5413 5415 5417 5419 5421 5422 5424
5237 5238 5239 5240 5241 5243 5245 5248 5251 5255 5259 5264 5269 5273 5278 5284 5290 5296 5303 5310 5317 5325 5331 5338 5345 5352 5358 5363 5369 5375 5380 5385 5389 5394 5397 5399 5402 5405 5407 5409 5411 5413 5415 5416
5233 5234 5236 5238 5240 5242 5243 5246 5249 5253 5257 5262 5267 5272 5277 5284 5290 5296 5302 5309 5316 5322 5328 5335 5341 5347 5353 5358 5363 5368 5372 5377 5381 5385 5389 5391 5394 5396 5399 5401 5403 5406 5407 5408